Regional Weather Roundup
Issued by NWS

Home | Current Version | Previous Version | Graphics & Text | Print | Product List | Glossary Off
Versions: 1 2 3 4 5 6 7 8 9 10 11 12 13 14 15 16 17 18 19 20 21 22 23 24 25 26 27 28 29 30 31 32 33 34 35 36 37 38 39 40 41 42 43 44 45 46 47 48 49 50

000
ASUS43 KMPX 241810
RWRMN
WEATHER ROUNDUP FOR MINNESOTA
NATIONAL WEATHER SERVICE TWIN CITIES/CHANHASSEN MN
1200 PM CST SAT JAN 24 2015


NOTE: "FAIR" INDICATES FEW OR NO CLOUDS BELOW 12,000 FEET WITH NO
SIGNIFICANT WEATHER AND/OR OBSTRUCTIONS TO VISIBILITY. N/A MEANS
CURRENT SKY AND/OR WEATHER CONDITIONS ARE NOT AVAILABLE.

MNZ060>063-068>070-241900-
   Twin Cities Metro

CITY           SKY/WX    TMP DP  RH WIND       PRES   REMARKS
TWIN CITIES    MOSUNNY   38  31  76 SW7       29.66F
6HR MIN TEMP:  29; 6HR MAX TEMP:  38;

ST PAUL        SUNNY     39  31  72 W10       29.67F
CRYSTAL        SUNNY     40  31  70 S6        29.64F
BLAINE         MOSUNNY   41  34  75 SW3       29.65F
LAKEVILLE      SUNNY     36  30  80 W8        29.65F
EDEN PRAIRIE   SUNNY     38  31  76 SW8       29.65F
6HR MIN TEMP:  28; 6HR MAX TEMP:  38;

SOUTH ST PAUL  SUNNY     40  31  71 W7        29.66F
LAKE ELMO      FAIR      37  32  81 SW7       29.66F
$$
MNZ001>005-007-008-013>017-022>024-027-028-241900-
   Northwest Minnesota

CITY           SKY/WX    TMP DP  RH WIND       PRES   REMARKS
BEMIDJI        CLOUDY    31  29  93 CALM      29.60F FOG
HALLOCK        CLOUDY    32  28  86 N8        29.67F WCI  25
ROSEAU         CLOUDY    30  25  80 E13       29.67S WCI  20
WARROAD        CLOUDY    27  23  86 NE12      29.68S WCI  16
THIEF RVR FALL CLOUDY    34  28  80 E6        29.64R WCI  29
CROOKSTON      CLOUDY    30  30 100 NE7       29.64F WCI  23
FOSSTON        FOG       30  28  93 CALM      29.62F VSB 1
DETROIT LAKES  MOSUNNY   34  32  93 CALM      29.61F
MOORHEAD       CLOUDY    34  34 100 W3        29.62F
PARK RAPIDS    CLOUDY    31  29  92 CALM      29.60F FOG
MAHNOMEN       MOCLDY    31  29  94 CALM      29.60F
$$
MNZ006-009>011-018-025>026-241900-
   North Central Minnesota

CITY           SKY/WX    TMP DP  RH WIND       PRES   REMARKS
BAUDETTE       CLOUDY    30  23  75 NE10      29.65S WCI  21
FLAG ISLAND    SUNNY     19  10  68 NE14      29.70S WCI   6
INTL FALLS     CLOUDY    25  14  63 NE12      29.66S WCI  14
6HR MIN TEMP:  24; 6HR MAX TEMP:  32; 6HR PCP: TRACE;

WASKISH        CLOUDY    34  30  86 CALM      29.64S
BIG FORK       CLOUDY    36  28  75 CALM      29.61F
LONGVILLE      CLOUDY    34  28  80 CALM      29.61F
GRAND RAPIDS   CLOUDY    34  28  80 CALM      29.61F
CRANE LAKE     CLOUDY    25  16  68 N5        29.67S WCI  19
ORR            CLOUDY    32  25  74 CALM      29.60S
COOK           CLOUDY    32  27  80 N5        29.61F WCI  27
WALKER         CLOUDY    32  28  86 CALM      29.61F
$$
MNZ012-019>021-037-241900-
   Northeast Minnesota

CITY           SKY/WX    TMP DP  RH WIND       PRES   REMARKS
DULUTH         CLOUDY    34  28  79 NW7       29.59F WCI  28
6HR MIN TEMP:  33; 6HR MAX TEMP:  34;

ELY            CLOUDY    30  25  80 N5        29.60F WCI  25
HIBBING        CLOUDY    34  28  79 NW5       29.60F WCI  30
EVELETH        PTSUNNY   34  30  86 W6        29.61F WCI  29
DULUTH HARBOR  CLOUDY    36  30  80 S7        29.63F
TWO HARBORS    CLOUDY    39  30  70 CALM      29.59S
SILVER BAY     CLOUDY    37  28  70 CALM      29.59F
GRAND MARAIS     N/A     31  20  63 NW9       29.63F WCI  23
G MARAIS ARPRT CLOUDY    25  16  68 NW9       29.59S WCI  15
$$
MNZ029>031-032-039>041-046>048-054>057-064-241900-
   West Central Minnesota

CITY           SKY/WX    TMP DP  RH WIND       PRES   REMARKS
FERGUS FALLS   CLOUDY    30  30 100 CALM      29.63F
WHEATON        CLOUDY    34  30  86 W3        29.64F
MORRIS         CLOUDY    36  30  80 W3        29.62F
ALEXANDRIA     MOSUNNY   36  30  79 W6        29.61F
ELBOW LAKE     FAIR      32  30  92 CALM      29.61F
WADENA         CLOUDY    32  30  93 NW5       29.61F WCI  27
GLENWOOD       FAIR      36  30  80 W6        29.62F
APPLETON       CLOUDY    37  32  81 W3        29.63F
BENSON         CLOUDY    37  30  75 CALM      29.63F
ORTONVILLE     CLOUDY    36  30  80 W6        29.63F
MADISON        CLOUDY    39  34  81 W5        29.63F
WILLMAR        FAIR      37  32  81 W8        29.65F
$$
MNZ033>034-036-042>043-049>051-058-059-241900-
   Central Minnesota

CITY           SKY/WX    TMP DP  RH WIND       PRES   REMARKS
ST CLOUD       SUNNY     38  31  76 SW5       29.63F
6HR MIN TEMP:  25; 6HR MAX TEMP:  38;

SAUK CENTRE    FAIR      35  31  87 W6        29.62F WCI  30
PAYNESVILLE    SUNNY     36  32  85 SW8       29.63F
AITKIN         CLOUDY    37  30  75 CALM      29.60F
PINE RIVER     CLOUDY    30  30 100 CALM      29.65F FOG
BRAINERD       CLOUDY    32  30  92 CALM      29.62F FOG
STAPLES        CLOUDY    32  30  93 NW3       29.61F
LONG PRAIRIE   FAIR      34  32  93 W5        29.62F WCI  30
LITTLE FALLS   MOSUNNY   36  30  80 CALM      29.62F
LITCHFIELD     SUNNY     39  34  81 W5        29.64F
BUFFALO        SUNNY     37  31  79 SW3       29.65F
MAPLE LAKE     SUNNY     38  33  81 W3        29.65F
$$
MNZ037-044-045-052-053-241900-
   East Central Minnesota

CITY           SKY/WX    TMP DP  RH WIND       PRES   REMARKS
PRINCETON      SUNNY     41  32  70 SW6       29.64F
MORA           PTSUNNY   36  30  80 CALM      29.64F
CAMBRIDGE      PTSUNNY   39  30  70 S5        29.61F
RUSH CITY      MOSUNNY   38  31  78 CALM      29.63F
MOOSE LAKE     CLOUDY    36  30  80 CALM      29.60F
HINCKLEY       CLOUDY    37  32  81 CALM      29.63F
CLOQUET        CLOUDY    36  28  75 W6        29.61F
MCGREGOR       CLOUDY    36  32  87 CALM      29.62F
$$
MNZ071>073-080-081-089-090-097-098-241900-
   Southwest Minnesota

CITY           SKY/WX    TMP DP  RH WIND       PRES   REMARKS
MONTEVIDEO     PTSUNNY   37  32  81 NW3       29.65F
GRANITE FALLS  MOSUNNY   37  32  84 CALM      29.66F
CANBY          CLOUDY    38  32  78 W7        29.65F
MARSHALL       PTSUNNY   37  28  70 W9        29.66F
REDWOOD FALLS  SUNNY     39  32  76 W14       29.65F
OLIVIA         SUNNY     37  32  81 W10       29.64F
PIPESTONE      CLOUDY    36  32  87 W9        29.65F
WINDOM         SUNNY     37  34  87 SW10      29.67F
WORTHINGTON    MOSUNNY   36  30  80 W12       29.68F
JACKSON        SUNNY     37  32  81 W10       29.68F
TRACY          MOSUNNY   38  32  79 W10       29.65F
SLAYTON        MOSUNNY   36  31  83 CALM      29.67F
$$
MNZ065>067-074>077-082>085-091>093-241900-
   South Central Minnesota

CITY           SKY/WX    TMP DP  RH WIND       PRES   REMARKS
MANKATO        SUNNY     39  32  75 SW5       29.66F
NEW ULM        SUNNY     37  34  87 W8        29.66F
ST JAMES       SUNNY     43  36  75 W12       29.68F
FAIRMONT       SUNNY     41  27  56 SW10      29.67F
GLENCOE        SUNNY     38  33  84 SW3       29.64F
FARIBAULT      SUNNY     37  32  81 SW7       29.67F
OWATONNA       SUNNY     36  30  80 W8        29.67F
WASECA         SUNNY     36  32  87 SW8       29.68F
ALBERT LEA     SUNNY     37  34  87 W7        29.67F
$$
MNZ078>079-086>088-094>096-241900-
   Southeast Minnesota

CITY           SKY/WX    TMP DP  RH WIND       PRES   REMARKS
ROCHESTER      SUNNY     33  29  85 W9        29.67F WCI  25
6HR MIN TEMP:  24; 6HR MAX TEMP:  33;

RED WING       SUNNY     39  30  70 W5        29.66F
STANTON        SUNNY     37  31  81 SW7       29.65F
DODGE CENTER   SUNNY     34  32  93 SW8       29.65F WCI  27
WINONA         PTSUNNY   37  32  81 NE3       29.67F
AUSTIN         SUNNY     36  30  80 W5        29.67F
PRESTON        SUNNY     33  29  86 W7        29.67F WCI  27
$$
ABBREVIATIONS USED IN REMARKS
   TC - TEMPERATURES IN CELSIUS
  WCI - WIND CHILL INDEX
   HX - HEAT INDEX
  VSB - VISIBILITY
$$


USA.gov is the U.S. government's official web portal to all federal, state and local government web resources and services.